AirNav   Everest Fuels
 
 884 users online  

NR80 Caromont RMC Heliport
Gastonia, North Carolina, USA

GOING TO GASTONIA?


FAA INFORMATION EFFECTIVE 21 MAY 2020

Location

FAA Identifier: NR80
Lat/Long: 35-16-26.6000N 081-08-21.1000W
35-16.443333N 081-08.351667W
35.2740556,-81.1391944
(estimated)
Elevation: 789 ft. / 240 m (estimated)
From city: 3 miles NE of GASTONIA, NC
Time zone: UTC -4 (UTC -5 during Standard Time)
Zip code: 28098

Heliport Operations

Heliport use: Private use. Permission required prior to landing
Activation date: 08/2016
Control tower: no
ARTCC: ATLANTA CENTER
FSS: RALEIGH FLIGHT SERVICE STATION
Attendance: CONTINUOUS
Wind indicator: lighted
Segmented circle: no
Lights: SS-SR

Heliport Communications

WX ASOS at AKH (4 nm S): 135.725 (704-868-9034)
WX ASOS at CLT (10 nm E): 121.15 (704-359-0235)
WX AWOS-3 at IPJ (13 nm N): 119.675 (704-735-6954)
WX ASOS at UZA (18 nm S): 120.775 (803-981-9388)

Nearby radio navigation aids

VOR radial/distance  VOR name  Freq  Var
CLTr304/10.5CHARLOTTE VOR/DME115.0005W
BZMr178/36.0BARRETTS MOUNTAIN VOR/DME110.8006W

 
NDB name  Hdg/Dist  Freq  Var  ID
STONIA016/5.026006WGHJ --. .... .---
FIRST RIVER093/22.641706WSLP ... .-.. .--.
CHESTER012/29.522006WDCM -.. -.-. --
LANCASTER344/35.840007WLKR .-.. -.- .-.
FIDDLERS142/36.939107WFIQ ..-. .. --.-

Heliport Services

Runway Information

Helipad H1

Dimensions: 60 x 60 ft. / 18 x 18 m
Surface: concrete, in excellent condition
Runway edge lights: PERI
Traffic pattern: leftleft
Markings: basic, in good condition

Heliport Ownership and Management from official FAA records

Ownership: Privately-owned
Owner: CAROMONT REGIONAL MEDICAL CENTER
2525 COURT DRIVE
GASTONIA, NC 28054
Phone 704-834-2801
Manager: DEON LEWIS
2525 COURT DRIVE
GASTONIA, NC 28054
Phone 704-834-2801

Additional Remarks

MEDICAL USE / PPR / CONTACT HOSPITAL EMERGENCY DEPARTMENT AT (704) 834-3987. COMPREHENSIVE 'PILOT BRIEFINGS SHEET' AVAILABLE UPON REQUEST FROM HOSPITAL HELIPORT MANAGER DEON LEWIS AT (704) 834-2809 OR HOSPITAL SECURITY AT (704) 834-2801. USE OF PILOT BRIEFING SHEET INFORMATION IS REQUIRED AND CONTAINS IMPORTANT AERONAUTICAL INFORMATION.
APPROACH DEPARTURE PATHS: 290 / 110 AND 105 / 285 (STANDARD) WITH GREEN LED LEAD-IN LIGHTS.
FOR CD CTC ATLANTA ARTCC AT 770-210-7692.

Instrument Procedures

There are no published instrument procedures at NR80.

Some nearby airports with instrument procedures:

KAKH - Gastonia Municipal Airport (4 nm S)
KCLT - Charlotte/Douglas International Airport (10 nm E)
KIPJ - Lincolnton-Lincoln County Regional Airport (13 nm N)
KUZA - Rock Hill (York Co) Airport-Bryant Field (18 nm S)
KJQF - Concord-Padgett Regional Airport (22 nm E)
 
Loc | Ops | Rwys | IFR | FBO | Links
Com | Nav | Svcs | Stats | Notes
Aerial photo
No photo
 
Airport distance calculator
Flying to Caromont RMC Heliport? Find the distance to fly.

From to NR80

Sunrise and sunset
Times for 29-May-2020
 Local
(UTC-4)
 Zulu
(UTC)
Morning civil twilight05:4409:44
Sunrise06:1310:13
Sunset20:3100:31
Evening civil twilight21:0101:01

Current date and time
Zulu (UTC)  30-May-2020 00:39:19
Local (UTC-4)  29-May-2020 20:39:19
 
METAR
KAKH 
4nm S 
292354Z AUTO 00000KT 10SM CLR 24/21 A3002 RMK AO2 SLP159 6//// T02440206 10283 20244 53008
KCLT 
10nm E 
292352Z 15007KT 10SM FEW050 BKN120 BKN150 24/21 A3003 RMK AO2 SLP161 CB DSNT NW T02390206 10250 20211 53007
KIPJ 
13nm N 
300015Z AUTO 00000KT 7SM -RA SCT050 BKN060 OVC090 23/23 A3003 RMK AO2 P0001 T02300225
KUZA 
18nm S 
292354Z AUTO VRB03KT 10SM CLR 24/22 A3003 RMK AO2 SLP156 60000 T02440217 10256 20206 53007
TAF
KCLT 
10nm E 
292317Z 2923/3024 16005KT P6SM VCSH FEW050 BKN120 TEMPO 3001/3004 4SM TSRA BR OVC025CB FM300700 21003KT 6SM BR VCSH BKN035 FM300900 22003KT 5SM BR BKN020 FM301300 30003KT 6SM BR BKN040 FM302000 36004KT P6SM BKN060 PROB30 3020/3024 4SM TSRA BR BKN040CB
NOTAMs
Click for the latest NOTAMs
NOTAMs are issued by the DoD/FAA and will open in a separate window not controlled by AirNav.

 

 
 

Would you like to see your business listed on this page?

 If your business provides an interesting product or service to pilots, flight crews, aircraft, or users of the Caromont RMC Heliport, you should consider listing it here.  To start the listing process, click on the button below
 
Add a business
 

Other Pages about Caromont RMC Heliport

Update a link
 
Copyright © AirNav, LLC. All rights reserved. Privacy Policy  Contact